INSAT 3A

Last updated on March 27, 2017, 12:17 a.m. UTC

1 27714U 03013A   17084.60624962  .00000101  00000-0  00000-0 0  9995
2 27714   0.9781  88.3794 0015640 235.5492 302.9027  0.99801616 51080
UTC
Height (km)
Latitude
Longitude
Inclination
Orbital Period
UTC large
Height (km)
Speed (km/s)
/
Latitude / Longitude
Inclination (degrees)
Orbital Period (minutes)
Azimuth
Elevation
Range (km)
Doppler Factor
iOS Compass Heading
iOS Angle

Next 30 passes for location: Hong Kong

Rise time Rise Azimuth (degrees) Set time Set Azimuth (degrees) Duration Max altitude (degrees)

No matching passes for this satellites